Sigfox identifier Datetime Temperature Humidity SNR
003B28DF 2019-02-20 13:46:48 20.8 22 24
003B28DF 2019-02-20 13:17:04 20.9 23 23.9
003B28DF 2019-02-20 12:47:19 20.8 24 23.2
003B28DF 2019-02-20 12:17:38 20.8 24 23
003B28DF 2019-02-20 11:47:50 20.7 25 23.1
003B28DF 2019-02-20 11:18:06 20.7 26 22.3
003B28DF 2019-02-20 10:48:21 20.7 26 22.3
003B28DF 2019-02-20 10:18:36 20.7 27 21.2
003B28DF 2019-02-20 09:48:52 20.6 27 21.1
003B28DF 2019-02-20 09:19:08 20.6 27 19.6
003B28DF 2019-02-20 08:49:22 20.5 27 17.3
003B28DF 2019-02-20 08:19:37 20.5 27 17.3
003B28DF 2019-02-20 07:49:52 20.5 27 17.3
003B28DF 2019-02-20 07:20:07 20.6 27 17.3
003B28DF 2019-02-20 06:50:22 20.6 27 19.5
003B28DF 2019-02-20 06:20:37 20.5 27 19.5
003B28DF 2019-02-20 05:50:51 20.6 27 19.7
003B28DF 2019-02-20 05:21:06 20.6 27 19.7
003B28DF 2019-02-20 04:51:20 20.6 27 19.6
003B28DF 2019-02-20 04:21:36 20.6 27 19.6
003B28DF 2019-02-20 03:51:54 20.6 27 19.7
003B28DF 2019-02-20 03:22:07 20.6 27 19.6
003B28DF 2019-02-20 02:52:23 20.6 27 19.4
003B28DF 2019-02-20 02:22:37 20.6 27 19.6
003B28DF 2019-02-20 01:52:52 20.6 27 19.6
003B28DF 2019-02-20 01:23:06 20.6 27 19.8
003B28DF 2019-02-20 00:53:22 20.6 27 19.7
003B28DF 2019-02-20 00:23:36 20.6 27 19.6
003B28DF 2019-02-19 23:53:52 20.7 27 20.1
003B28DF 2019-02-19 23:24:07 20.7 27 19.8
003B28DF 2019-02-19 22:54:22 20.7 27 19.7
003B28DF 2019-02-19 22:23:55 20.7 27 19.6
003B28DF 2019-02-19 21:54:09 20.7 27 21.1
003B28DF 2019-02-19 21:24:24 20.7 27 21
003B28DF 2019-02-19 20:54:39 20.7 27 21.4
003B28DF 2019-02-19 20:24:54 20.7 27 21.4
003B28DF 2019-02-19 19:55:10 20.7 27 21.4
003B28DF 2019-02-19 19:25:25 20.8 27 21.4
003B28DF 2019-02-19 18:55:39 20.8 27 21.4
003B28DF 2019-02-19 18:25:54 20.8 27 20
003B28DF 2019-02-19 17:56:08 20.9 27 20.2
003B28DF 2019-02-19 17:26:23 21 27 20.2
003B28DF 2019-02-19 16:56:37 21 28 20.5
003B28DF 2019-02-19 16:26:51 21 28 20.6
003B28DF 2019-02-19 15:57:07 21 27 20.7
003B28DF 2019-02-19 15:27:20 20.9 27 20.7
003B28DF 2019-02-19 14:57:36 21 27 21
003B28DF 2019-02-19 14:27:51 21 27 22.2
003B28DF 2019-02-19 13:58:05 21.1 28 23
003B28DF 2019-02-19 13:28:22 21 27 23.1
003B28DF 2019-02-19 12:58:35 20.9 27 23
003B28DF 2019-02-19 12:28:55 20.9 27 23.1
003B28DF 2019-02-19 11:59:05 21 27 23.1
003B28DF 2019-02-19 11:29:19 20.9 27 23.1
003B28DF 2019-02-19 10:59:34 21 27 23.2
003B28DF 2019-02-19 10:29:48 20.8 27 23.2
003B28DF 2019-02-19 10:00:02 20.7 26 23.3
003B28DF 2019-02-19 09:30:16 20.7 26 22.4
003B28DF 2019-02-19 09:00:29 20.7 26 22.6
003B28DF 2019-02-19 08:30:43 20.6 26 22.4
003B28DF 2019-02-19 08:00:57 20.6 25 22.4
003B28DF 2019-02-19 07:31:11 20.6 25 22.5
003B28DF 2019-02-19 07:01:26 20.6 25 22.5
003B28DF 2019-02-19 06:31:45 20.6 25 22.5
003B28DF 2019-02-19 06:01:58 20.6 25 22.4
003B28DF 2019-02-19 05:32:13 20.6 25 22.3
003B28DF 2019-02-19 05:02:30 20.6 25 22.2
003B28DF 2019-02-19 04:32:48 20.6 25 22
003B28DF 2019-02-19 04:03:05 20.6 24 22
003B28DF 2019-02-19 03:33:20 20.6 24 21.9
003B28DF 2019-02-19 03:03:36 20.6 24 22.8
003B28DF 2019-02-19 02:33:54 20.7 24 22.7
003B28DF 2019-02-19 02:04:08 20.6 24 21.7
003B28DF 2019-02-19 01:34:23 20.6 24 20.4
003B28DF 2019-02-19 01:04:39 20.6 24 20.5
003B28DF 2019-02-19 00:34:54 20.7 24 20.5
003B28DF 2019-02-19 00:05:11 20.6 23 20.8
003B28DF 2019-02-18 23:35:25 20.6 23 21
003B28DF 2019-02-18 23:05:40 20.7 23 20.9
003B28DF 2019-02-18 22:35:55 20.7 23 21
003B28DF 2019-02-18 22:06:10 20.7 23 21.5
003B28DF 2019-02-18 21:35:44 20.7 23 21.6
003B28DF 2019-02-18 21:06:01 20.7 23 21.8
003B28DF 2019-02-18 20:36:15 20.7 22 21.8
003B28DF 2019-02-18 20:06:30 20.7 22 21.9
003B28DF 2019-02-18 19:36:46 20.7 22 22.1
003B28DF 2019-02-18 19:07:02 20.7 22 22.4
003B28DF 2019-02-18 18:37:18 20.7 22 22.7
003B28DF 2019-02-18 18:07:34 20.8 22 22.8
003B28DF 2019-02-18 17:37:51 20.8 22 22.9
003B28DF 2019-02-18 17:08:07 20.8 21 23.1
003B28DF 2019-02-18 16:38:23 20.9 22 23.4
003B28DF 2019-02-18 16:08:37 20.9 22 23.6
003B28DF 2019-02-18 15:38:55 20.9 21 23.7
003B28DF 2019-02-18 15:09:08 21 21 23.7
003B28DF 2019-02-18 14:39:23 21.1 21 24.1
003B28DF 2019-02-18 14:09:39 21.1 21 24.2
003B28DF 2019-02-18 13:39:58 21.1 20 24.3
003B28DF 2019-02-18 13:10:10 21.3 20 24.4
003B28DF 2019-02-18 12:40:25 21.4 19 24.5
003B28DF 2019-02-18 12:10:39 21.6 19 24.5
003B28DF 2019-02-18 11:40:54 21.5 19 24.6
003B28DF 2019-02-18 11:11:10 21.5 19 24.8
003B28DF 2019-02-18 10:41:26 21.4 19 24.9
003B28DF 2019-02-18 10:11:40 21.4 19 25.3
003B28DF 2019-02-18 09:41:55 21.2 19 25.3
003B28DF 2019-02-18 09:12:10 21.2 18 25.5
003B28DF 2019-02-18 08:42:26 21.1 18 25.5
003B28DF 2019-02-18 08:12:42 21 18 25.7
003B28DF 2019-02-18 07:42:56 21 18 25.7
003B28DF 2019-02-18 07:13:12 20.9 18 25.7
003B28DF 2019-02-18 06:43:27 20.9 18 25.7
003B28DF 2019-02-18 06:13:42 20.9 18 25.8
003B28DF 2019-02-18 05:44:02 20.9 18 25.8
003B28DF 2019-02-18 05:14:14 21 18 26
003B28DF 2019-02-18 04:44:30 21 18 26.2
003B28DF 2019-02-18 04:14:46 20.9 18 26.2
003B28DF 2019-02-18 03:45:02 20.9 18 26.2
003B28DF 2019-02-18 03:15:19 20.9 18 26.3
003B28DF 2019-02-18 02:45:35 20.9 18 26
003B28DF 2019-02-18 02:15:50 21 18 26.1
003B28DF 2019-02-18 01:46:07 21 18 26.1
003B28DF 2019-02-18 01:16:23 21 18 26.3
003B28DF 2019-02-18 00:46:40 21 18 26.4
003B28DF 2019-02-18 00:16:58 21 18 26.5
003B28DF 2019-02-17 23:47:14 21 19 26.5
003B28DF 2019-02-17 23:17:30 21 19 26.4
003B28DF 2019-02-17 22:47:46 21 19 26.4
003B28DF 2019-02-17 22:18:01 21 19 26.3
003B28DF 2019-02-17 21:48:16 21 19 26.1
003B28DF 2019-02-17 21:18:32 21 19 26.1
003B28DF 2019-02-17 20:48:07 21 19 26
003B28DF 2019-02-17 20:18:22 21 19 26.1
003B28DF 2019-02-17 19:48:37 21.1 19 26.1
003B28DF 2019-02-17 19:18:53 21.1 19 26.1
003B28DF 2019-02-17 18:49:08 21.1 19 26.2
003B28DF 2019-02-17 18:19:24 21.1 19 26.5
003B28DF 2019-02-17 17:49:39 21.1 19 26.5
003B28DF 2019-02-17 17:19:55 21.2 19 26.5
003B28DF 2019-02-17 16:50:11 21.2 19 26.5
003B28DF 2019-02-17 16:20:25 21.2 19 26.4
003B28DF 2019-02-17 15:50:41 21.2 19 26.4
003B28DF 2019-02-17 15:20:55 21.2 20 26.4
003B28DF 2019-02-17 14:51:09 21.2 20 26.3
003B28DF 2019-02-17 14:21:25 21.2 20 26.3
003B28DF 2019-02-17 13:51:38 21.2 20 26
003B28DF 2019-02-17 13:21:52 21.3 20 26.3
003B28DF 2019-02-17 12:52:07 21.2 20 26.2
003B28DF 2019-02-17 12:22:23 21.1 20 26.2
003B28DF 2019-02-17 11:52:37 21.1 20 26.1
003B28DF 2019-02-17 11:22:53 21.1 20 26.1
003B28DF 2019-02-17 10:53:08 21.1 20 26.1
003B28DF 2019-02-17 10:23:24 21.1 20 26.1
003B28DF 2019-02-17 09:53:39 21.1 20 26.1
003B28DF 2019-02-17 09:23:55 21 20 26.1
003B28DF 2019-02-17 08:54:10 21 21 26.1
003B28DF 2019-02-17 08:24:24 21 21 26.2
003B28DF 2019-02-17 07:54:40 21 21 26.2
003B28DF 2019-02-17 07:24:56 21 21 26.4
003B28DF 2019-02-17 06:55:12 21 21 26.4
003B28DF 2019-02-17 06:25:26 21.1 21 26.3
003B28DF 2019-02-17 05:55:42 21.1 21 26.2
003B28DF 2019-02-17 05:25:58 21.1 22 26.1
003B28DF 2019-02-17 04:56:14 21.1 22 26.2
003B28DF 2019-02-17 04:26:30 21.1 22 26.1
003B28DF 2019-02-17 03:56:45 21.1 22 26.4
003B28DF 2019-02-17 03:27:01 21.1 22 26.4
003B28DF 2019-02-17 02:57:17 21.1 23 26.3
003B28DF 2019-02-17 02:27:30 21.1 23 26.4
003B28DF 2019-02-17 01:57:46 21.1 23 26.3
003B28DF 2019-02-17 01:28:02 21.1 23 26.4
003B28DF 2019-02-17 00:58:18 21.1 24 26.2
003B28DF 2019-02-17 00:28:33 21.1 24 26.1
003B28DF 2019-02-16 23:58:48 21.1 24 26.2
003B28DF 2019-02-16 23:29:04 21.1 24 26.3
003B28DF 2019-02-16 22:59:18 21.1 24 26.3
003B28DF 2019-02-16 22:29:33 21.2 24 26.4
003B28DF 2019-02-16 21:59:47 21.2 24 26.5
003B28DF 2019-02-16 21:30:02 21.2 24 26.5
003B28DF 2019-02-16 21:00:14 21.2 24 26.3
003B28DF 2019-02-16 20:30:28 21.2 24 26.3
003B28DF 2019-02-16 20:00:00 21.2 24 26.1
003B28DF 2019-02-16 19:30:14 21.2 24 26.2
003B28DF 2019-02-16 19:00:28 21.2 25 25.9
003B28DF 2019-02-16 18:30:42 21.2 25 25.9
003B28DF 2019-02-16 18:00:57 21.2 24 25.9
003B28DF 2019-02-16 17:31:12 21.3 24 25.8
003B28DF 2019-02-16 17:01:27 21.4 24 25.8
003B28DF 2019-02-16 16:31:40 21.4 25 25.7
003B28DF 2019-02-16 16:01:55 21.5 25 25.7
003B28DF 2019-02-16 15:32:10 21.5 25 25.4
003B28DF 2019-02-16 15:02:25 21.5 24 25.3
003B28DF 2019-02-16 14:32:39 21.5 24 25.3
003B28DF 2019-02-16 14:02:55 21.4 24 25.5
003B28DF 2019-02-16 13:33:09 21.4 24 25.5
003B28DF 2019-02-16 13:03:25 21.4 24 25.5
003B28DF 2019-02-16 12:33:39 21.3 24 25.3
003B28DF 2019-02-16 12:03:53 21.3 24 25.4
003B28DF 2019-02-16 11:34:09 21.3 24 25.3
003B28DF 2019-02-16 11:04:24 21.2 25 25.2
003B28DF 2019-02-16 10:34:40 21.2 25 25.1
003B28DF 2019-02-16 10:04:54 21.1 25 25.1
003B28DF 2019-02-16 09:35:08 21.1 25 25.1
003B28DF 2019-02-16 09:05:24 21.1 25 25.2
003B28DF 2019-02-16 08:35:38 21.1 25 25.2
003B28DF 2019-02-16 08:05:54 21.1 25 25.6
003B28DF 2019-02-16 07:36:07 21.1 25 25.7
003B28DF 2019-02-16 07:06:23 21.2 25 25.7
003B28DF 2019-02-16 06:36:40 21.2 25 25.7
003B28DF 2019-02-16 06:06:54 21.2 25 25.8
003B28DF 2019-02-16 05:37:10 21.2 25 25.9
003B28DF 2019-02-16 05:07:25 21.2 25 25.8
003B28DF 2019-02-16 04:37:39 21.2 25 25.8
003B28DF 2019-02-16 04:07:52 21.2 25 25.8
003B28DF 2019-02-16 03:38:07 21.2 25 25.9
003B28DF 2019-02-16 03:08:21 21.2 25 25.8
003B28DF 2019-02-16 02:38:37 21.2 25 25.9
003B28DF 2019-02-16 02:08:52 21.2 25 25.9
003B28DF 2019-02-16 01:39:07 21.2 25 25.6
003B28DF 2019-02-16 01:09:22 21.2 25 25.7
003B28DF 2019-02-16 00:39:38 21.2 25 25.7
003B28DF 2019-02-16 00:09:53 21.3 25 25.7
003B28DF 2019-02-15 23:40:08 21.3 25 25.6
003B28DF 2019-02-15 23:10:22 21.3 25 25.5
003B28DF 2019-02-15 22:40:36 21.4 25 25.5
003B28DF 2019-02-15 22:10:50 21.4 25 25.5
003B28DF 2019-02-15 21:41:06 21.4 25 25.4
003B28DF 2019-02-15 21:11:20 21.4 25 25.7
003B28DF 2019-02-15 20:41:35 21.5 25 25.7
003B28DF 2019-02-15 20:11:49 21.5 25 25.7
003B28DF 2019-02-15 19:42:03 21.6 25 25.3
003B28DF 2019-02-15 19:11:36 21.7 25 25.1
003B28DF 2019-02-15 18:41:49 21.8 25 25.4
003B28DF 2019-02-15 18:12:03 21.8 25 25.3
003B28DF 2019-02-15 17:42:17 21.9 24 25.3
003B28DF 2019-02-15 17:12:29 21.8 24 25.1
003B28DF 2019-02-15 16:42:41 21.8 24 25.3
003B28DF 2019-02-15 16:12:53 21.8 24 25.3
003B28DF 2019-02-15 15:43:07 21.8 23 25.7
003B28DF 2019-02-15 15:13:20 21.9 23 25.7
003B28DF 2019-02-15 14:43:32 21.8 23 25.8
003B28DF 2019-02-15 14:13:45 21.9 23 25.7
003B28DF 2019-02-15 13:43:58 21.8 23 25.6
003B28DF 2019-02-15 13:14:10 21.8 23 25.8
003B28DF 2019-02-15 12:44:23 21.7 23 25.9
003B28DF 2019-02-15 12:14:36 21.7 23 25.9
003B28DF 2019-02-15 11:44:48 21.6 24 25.9
003B28DF 2019-02-15 11:15:01 21.6 24 25.9
003B28DF 2019-02-15 10:45:14 21.6 24 25.8
003B28DF 2019-02-15 10:15:27 21.5 24 25.8
003B28DF 2019-02-15 09:45:39 21.5 24 25.7
003B28DF 2019-02-15 09:15:53 21.4 24 25.9
003B28DF 2019-02-15 08:46:07 21.4 24 25.9
003B28DF 2019-02-15 08:16:20 21.3 25 25.8
003B28DF 2019-02-15 07:46:35 21.3 25 25.9
003B28DF 2019-02-15 07:16:48 21.3 25 26
003B28DF 2019-02-15 06:47:03 21.3 25 26.2
003B28DF 2019-02-15 06:17:16 21.3 25 26
003B28DF 2019-02-15 05:47:30 21.3 25 26
003B28DF 2019-02-15 05:17:44 21.3 25 25.8
003B28DF 2019-02-15 04:47:57 21.3 25 25.7
003B28DF 2019-02-15 04:18:10 21.3 25 25.6
003B28DF 2019-02-15 03:48:23 21.3 25 25.5
003B28DF 2019-02-15 03:18:37 21.3 25 25
003B28DF 2019-02-15 02:48:51 21.3 25 24.8
003B28DF 2019-02-15 02:19:05 21.3 25 24.7
003B28DF 2019-02-15 01:49:19 21.3 25 24.5
003B28DF 2019-02-15 01:19:32 21.3 25 24.4
003B28DF 2019-02-15 00:49:45 21.4 25 24.3
003B28DF 2019-02-15 00:19:58 21.3 25 24.1
003B28DF 2019-02-14 23:50:10 21.4 25 23.9
003B28DF 2019-02-14 23:20:24 21.4 25 23.9
003B28DF 2019-02-14 22:50:37 21.4 25 23.8
003B28DF 2019-02-14 22:20:50 21.4 25 23.7
003B28DF 2019-02-14 21:51:03 21.5 25 23.6
003B28DF 2019-02-14 21:21:16 21.5 25 23.7
003B28DF 2019-02-14 20:51:29 21.5 24 23.6
003B28DF 2019-02-14 20:21:42 21.6 24 22.8
003B28DF 2019-02-14 19:51:56 21.6 24 22.8
003B28DF 2019-02-14 19:22:08 21.7 24 22.7
003B28DF 2019-02-14 18:52:22 21.8 24 22.8
003B28DF 2019-02-14 18:21:54 21.8 24 22
003B28DF 2019-02-14 17:52:06 21.9 24 21.8
003B28DF 2019-02-14 17:22:20 21.9 24 22
003B28DF 2019-02-14 16:52:32 21.9 24 22.2
003B28DF 2019-02-14 16:22:45 21.9 24 23
003B28DF 2019-02-14 15:52:57 21.8 24 23.1
003B28DF 2019-02-14 15:23:10 21.7 24 23.3
003B28DF 2019-02-14 14:53:23 21.7 24 23.6
003B28DF 2019-02-14 14:23:35 21.6 24 23.9
003B28DF 2019-02-14 13:53:49 21.5 24 24.2
003B28DF 2019-02-14 13:24:02 21.3 24 24.3
003B28DF 2019-02-14 12:54:15 21.3 24 24.4
003B28DF 2019-02-14 12:24:27 21.2 24 24.4
003B28DF 2019-02-14 11:54:41 21.1 24 24.5
003B28DF 2019-02-14 11:24:54 21 24 25
003B28DF 2019-02-14 10:55:06 20.9 24 25.2
003B28DF 2019-02-14 10:25:19 20.8 24 25.2
003B28DF 2019-02-14 09:55:34 20.8 24 25.4
003B28DF 2019-02-14 09:25:48 20.7 24 25.8
003B28DF 2019-02-14 08:56:02 20.7 24 25.7
003B28DF 2019-02-14 08:26:17 20.7 24 25.8
003B28DF 2019-02-14 07:56:31 20.7 24 25.8
003B28DF 2019-02-14 07:26:44 20.7 25 25.8
003B28DF 2019-02-14 06:56:58 20.7 25 26
003B28DF 2019-02-14 06:27:12 20.8 25 25.9
003B28DF 2019-02-14 05:57:27 20.8 25 25.8
003B28DF 2019-02-14 05:27:41 20.8 25 25.8
003B28DF 2019-02-14 04:57:55 20.8 25 25.7
003B28DF 2019-02-14 04:28:11 20.8 25 25.7
003B28DF 2019-02-14 03:58:26 20.8 25 25.3
003B28DF 2019-02-14 03:28:41 20.8 25 25.2
003B28DF 2019-02-14 02:58:56 20.8 25 25.2
003B28DF 2019-02-14 02:29:09 20.8 25 25
003B28DF 2019-02-14 01:59:22 20.8 25 24.8
003B28DF 2019-02-14 01:29:36 20.8 25 24.7
003B28DF 2019-02-14 00:59:49 20.8 24 24.7
003B28DF 2019-02-14 00:30:06 20.8 24 24.5
003B28DF 2019-02-14 00:00:18 20.9 24 24.5
003B28DF 2019-02-13 23:30:30 20.9 24 24.4
003B28DF 2019-02-13 23:00:45 20.9 24 23.8
003B28DF 2019-02-13 22:30:59 21 24 23.6
003B28DF 2019-02-13 22:01:13 21 24 23.4
003B28DF 2019-02-13 21:31:28 21.1 24 23.2
003B28DF 2019-02-13 21:01:42 21.1 25 22.4
003B28DF 2019-02-13 20:31:57 21.2 25 22.3
003B28DF 2019-02-13 20:02:11 21.2 25 22.2
003B28DF 2019-02-13 19:32:25 21.3 25 22
003B28DF 2019-02-13 19:02:39 21.3 25 21.8
003B28DF 2019-02-13 18:32:53 21.3 25 21.5
003B28DF 2019-02-13 18:03:07 21.3 26 21.1
003B28DF 2019-02-13 17:32:41 21.3 25 21.2
003B28DF 2019-02-13 17:02:56 21.2 25 21.2
003B28DF 2019-02-13 16:33:11 21.2 25 21
003B28DF 2019-02-13 16:03:26 21.1 25 20.7
003B28DF 2019-02-13 15:33:40 21.1 24 20.7
003B28DF 2019-02-13 15:03:55 21.1 24 20.6
003B28DF 2019-02-13 14:34:08 21.1 24 20.5
003B28DF 2019-02-13 14:04:22 21.1 24 20.6
003B28DF 2019-02-13 13:34:36 21.1 24 20.7
003B28DF 2019-02-13 13:04:50 21 24 20.7
003B28DF 2019-02-13 12:35:05 21 24 20.8
003B28DF 2019-02-13 12:05:20 21 24 20.9
003B28DF 2019-02-13 11:35:34 20.9 23 21.2
003B28DF 2019-02-13 11:05:48 20.8 23 21.1
003B28DF 2019-02-13 10:36:03 20.8 23 21.4
003B28DF 2019-02-13 10:06:18 20.8 22 21.4
003B28DF 2019-02-13 09:36:33 20.7 22 21.5
003B28DF 2019-02-13 09:06:47 20.7 21 21.6
003B28DF 2019-02-13 08:37:02 20.7 21 21.7
003B28DF 2019-02-13 08:07:17 20.7 20 21.7
003B28DF 2019-02-13 07:37:32 20.7 20 21.7
003B28DF 2019-02-13 07:07:48 20.7 19 21.9
003B28DF 2019-02-13 06:38:03 20.7 19 21.9
003B28DF 2019-02-13 06:08:17 20.7 20 22
003B28DF 2019-02-13 05:38:32 20.7 19 22
003B28DF 2019-02-13 05:08:45 20.7 19 22
003B28DF 2019-02-13 04:38:58 20.7 20 21.8
003B28DF 2019-02-13 04:09:12 20.7 19 21.7
003B28DF 2019-02-13 03:39:26 20.8 19 21.7
003B28DF 2019-02-13 03:09:39 20.8 19 21.7
003B28DF 2019-02-13 02:39:55 20.8 19 21.5
003B28DF 2019-02-13 02:10:11 20.8 19 21.3
003B28DF 2019-02-13 01:40:25 20.8 19 21.3
003B28DF 2019-02-13 01:10:40 20.8 19 21.1
003B28DF 2019-02-13 00:40:55 20.9 20 21
003B28DF 2019-02-13 00:11:10 20.9 20 20.6
003B28DF 2019-02-12 23:41:24 20.9 20 20.4
003B28DF 2019-02-12 23:11:40 20.9 20 20
003B28DF 2019-02-12 22:41:52 21 20 19.8
003B28DF 2019-02-12 22:12:07 21.1 20 19.4
003B28DF 2019-02-12 21:42:21 21.2 21 19.5
003B28DF 2019-02-12 21:12:35 21.2 21 19.8
003B28DF 2019-02-12 20:42:50 21.3 21 19.6
003B28DF 2019-02-12 20:13:04 21.4 21 19.8
003B28DF 2019-02-12 19:43:16 21.4 20 19.4
003B28DF 2019-02-12 19:13:30 21.5 20 19.3
003B28DF 2019-02-12 18:43:46 21.6 20 19.4
003B28DF 2019-02-12 18:13:56 21.6 20 19.2
003B28DF 2019-02-12 17:44:10 21.7 20 18.8
003B28DF 2019-02-12 17:14:24 21.8 20 19.2
003B28DF 2019-02-12 16:43:59 21.9 20 19.5
003B28DF 2019-02-12 16:14:12 21.9 20 21
003B28DF 2019-02-12 15:44:27 22 20 21
003B28DF 2019-02-12 15:14:41 21.8 20 21.1
003B28DF 2019-02-12 14:44:55 21.7 20 21.1
003B28DF 2019-02-12 14:15:09 21.5 21 21.2
003B28DF 2019-02-12 13:45:28 21.2 21 21.2
003B28DF 2019-02-12 13:15:41 21.2 21 21.4
003B28DF 2019-02-12 12:45:54 21.2 22 21.6
003B28DF 2019-02-12 12:16:08 21.2 22 21.5
003B28DF 2019-02-12 11:46:24 21.1 22 21.7
003B28DF 2019-02-12 11:16:40 21.1 22 21.7
003B28DF 2019-02-12 10:46:55 21 23 21.7
003B28DF 2019-02-12 10:17:09 20.9 23 21.7
003B28DF 2019-02-12 09:47:23 20.9 23 21.7
003B28DF 2019-02-12 09:17:37 20.8 24 21.8
003B28DF 2019-02-12 08:47:52 20.8 24 21.6
003B28DF 2019-02-12 08:18:07 20.8 24 21.5
003B28DF 2019-02-12 07:48:20 20.8 25 21.3
003B28DF 2019-02-12 07:18:33 20.8 26 21.3
003B28DF 2019-02-12 06:48:48 20.8 26 21.4
003B28DF 2019-02-12 06:19:03 20.8 26 21.4
003B28DF 2019-02-12 05:49:17 20.8 26 21.5
003B28DF 2019-02-12 05:19:30 20.8 26 21.4
003B28DF 2019-02-12 04:49:42 20.8 26 21.1
003B28DF 2019-02-12 04:19:56 20.8 26 21.1
003B28DF 2019-02-12 03:50:08 20.8 26 19.5
003B28DF 2019-02-12 03:20:22 20.8 26 19.7
003B28DF 2019-02-12 02:50:36 20.9 26 19.8
003B28DF 2019-02-12 02:20:49 20.9 26 19.7
003B28DF 2019-02-12 01:51:03 20.9 26 19.8
003B28DF 2019-02-12 01:21:18 20.9 26 20
003B28DF 2019-02-12 00:51:32 20.9 27 19.4
003B28DF 2019-02-12 00:21:45 21 26 19.2
003B28DF 2019-02-11 23:52:00 21 27 19.5
003B28DF 2019-02-11 23:22:14 21.1 27 19.1
003B28DF 2019-02-11 22:52:28 21.1 27 19.2
003B28DF 2019-02-11 22:22:42 21.1 27 19.3
003B28DF 2019-02-11 21:52:55 21.2 27 19.1
003B28DF 2019-02-11 21:23:09 21.3 27 19.4
003B28DF 2019-02-11 20:53:23 21.4 27 18.7
003B28DF 2019-02-11 20:23:39 21.5 27 18.6
003B28DF 2019-02-11 19:53:48 21.6 27 19.1
003B28DF 2019-02-11 19:24:00 21.6 27 19.6
003B28DF 2019-02-11 18:54:14 21.8 27 20.3
003B28DF 2019-02-11 18:24:26 21.9 27 19.3
003B28DF 2019-02-11 17:54:39 22 27 17.1
003B28DF 2019-02-11 17:24:51 22.1 27 11.2
003B28DF 2019-02-11 16:55:03 22.1 28 13.5
003B28DF 2019-02-11 16:25:15 22.1 32 0